{"data":{"norad_id":58684,"epoch":"2026-09-20T04:08:16.821024Z","epoch_age_seconds":178000,"freshness":"STALE","line1":"1 58684U 23211T   26263.17241691 -.00000625  00000+0 -13207-4 0  9991","line2":"2 58684  43.0046  67.3327 0001166 271.1639  88.9079 15.27576103152209","mean_motion":15.27576103,"eccentricity":0.0001166,"inclination_deg":43.0046,"raan_deg":67.3327,"arg_perigee_deg":271.1639,"mean_anomaly_deg":88.9079,"bstar":-1.3207e-5,"rev_number":15220,"period_min":94.266989197592,"perigee_km":482.26074942499,"apogee_km":483.86078074381,"semimajor_km":6861.1977650844,"source":"CELESTRAK","updated_at":"2026-09-21T09:00:33.945668Z"}}